Theta_e
338 338 341 340 340 342 342 341 337 332 329 328 328 324 327 336 339 339 341 341 342 342 342 342 342 342 342 342 342 342 341 341 341 340 338 334 331 330 328 327 324 325 330 331 332 333 334 334 333 334 334 334 334 335 335 335 335 335 335 335 336 335 335 335 335 335 336 336 337 336 334 333 332 332 331 331 331 330 331 330 329 330 331 332 331
339 339 341 339 340 341 342 341 337 334 329 329 327 324 327 334 337 339 341 341 342 342 343 342 342 342 341 342 342 341 341 341 341 339 335 332 332 331 330 330 328 329 333 333 332 331 332 333 333 334 334 334 334 334 334 334 334 333 333 333 332 331 332 332 332 332 333 334 334 334 335 333 332 332 332 331 330 327 327 328 327 329 329 330 331
337 339 340 338 340 341 342 340 338 335 329 329 326 324 330 334 335 338 340 341 342 342 342 342 342 342 341 341 341 341 341 341 340 338 335 336 337 336 336 338 334 332 334 333 333 331 332 332 333 335 334 334 334 335 334 334 334 333 334 333 332 331 331 330 329 328 329 329 328 329 330 330 332 333 333 332 330 325 325 326 327 329 330 329 329
336 338 339 339 339 341 342 339 339 335 329 329 323 325 333 336 336 339 340 341 342 342 342 342 342 342 341 340 341 341 341 341 340 339 338 339 340 339 339 340 335 332 334 334 333 331 331 332 334 335 334 335 335 335 335 335 335 335 335 334 334 335 334 333 331 328 327 326 325 325 326 329 333 335 334 332 332 328 326 329 330 330 331 330 327
336 338 340 339 339 342 341 339 338 334 330 326 320 327 335 336 337 340 341 342 342 341 342 342 342 342 341 341 341 341 341 341 340 340 340 340 339 339 340 340 336 332 333 334 334 331 331 333 335 335 335 335 335 336 336 335 335 336 335 335 336 336 336 336 335 332 329 328 326 326 326 329 332 334 334 333 333 331 329 329 331 331 331 331 328
336 338 339 338 340 342 341 339 337 333 328 324 323 332 337 337 340 341 342 342 342 342 342 342 342 342 342 341 341 341 341 341 341 340 340 340 339 340 339 340 339 334 332 333 334 333 333 335 335 336 336 335 335 336 336 336 336 336 336 336 336 336 336 335 336 336 334 330 328 327 327 329 329 331 333 333 333 333 331 328 329 331 331 330 329
336 338 339 338 340 341 340 338 337 334 329 329 333 337 339 340 342 342 342 342 342 342 342 342 341 341 342 340 340 340 341 340 340 340 340 340 339 340 340 341 339 333 332 333 334 332 332 336 336 336 336 336 336 336 336 336 336 336 335 335 335 334 334 333 334 335 335 332 329 326 327 328 328 330 332 333 333 333 332 328 327 330 330 329 328
337 339 338 338 340 341 339 337 338 336 332 335 338 340 341 342 342 342 342 342 342 342 341 342 341 341 341 340 340 340 340 341 341 340 340 340 339 340 340 338 333 328 328 331 333 331 333 336 336 336 336 336 336 336 336 335 335 334 333 332 331 331 331 332 333 333 334 333 330 326 327 328 328 330 331 332 331 330 329 325 325 330 328 327 329
339 339 338 339 340 340 338 336 338 337 335 337 340 342 342 342 342 342 342 342 342 342 341 341 341 341 341 341 341 340 341 340 340 340 339 339 339 339 339 335 328 326 328 330 332 331 334 336 336 336 336 336 335 335 334 333 333 332 330 330 331 331 332 333 334 333 334 333 330 326 326 328 328 329 328 327 327 326 325 322 324 329 328 326 328
339 339 339 340 340 339 337 337 338 336 337 339 341 342 342 342 342 342 342 342 342 341 341 341 341 341 340 340 340 339 339 339 339 338 338 338 338 338 338 335 331 329 330 331 332 332 334 335 335 335 335 334 333 332 332 332 331 330 330 331 333 333 332 333 334 334 334 333 330 327 326 327 328 327 325 323 324 324 322 321 324 326 327 326 327
338 338 339 340 340 338 337 337 337 336 337 340 342 341 342 342 342 342 342 341 341 341 341 341 340 338 335 334 334 333 333 334 335 335 336 335 336 336 336 336 334 330 328 330 331 331 331 331 332 332 332 331 331 332 331 330 329 329 331 333 334 333 332 331 332 332 333 332 331 328 326 327 327 326 325 323 323 322 321 322 325 325 325 324 325
337 338 339 340 339 338 338 337 336 336 338 341 342 341 342 342 342 342 341 341 341 341 340 338 336 332 330 329 329 328 328 327 329 331 332 333 334 333 334 334 333 329 325 328 329 328 327 327 328 329 330 330 330 330 329 328 329 330 332 333 333 333 332 332 331 331 331 331 332 330 327 327 326 326 325 324 323 323 321 322 325 326 324 322 323
336 338 339 340 339 338 338 335 335 337 339 341 341 342 342 341 342 341 341 341 340 339 337 335 332 330 331 331 329 327 326 323 322 323 324 327 329 329 331 332 331 328 325 327 328 326 325 325 325 326 327 327 328 328 328 328 330 331 332 334 334 334 333 332 332 332 332 332 333 331 328 327 326 326 325 324 324 323 323 322 323 325 323 323 322
337 338 339 339 339 338 336 334 335 339 340 341 342 341 341 341 341 340 340 339 338 337 335 333 332 333 333 331 329 326 323 320 317 315 314 316 321 325 329 330 329 327 325 327 328 327 325 325 324 324 325 326 327 327 328 329 330 331 333 334 333 335 334 334 333 332 332 331 333 333 330 328 326 325 324 325 325 325 324 323 323 323 323 323 322
338 338 338 339 338 337 334 335 337 340 341 341 342 341 341 341 341 340 338 338 337 336 334 333 334 334 332 330 327 322 318 316 314 311 309 309 313 320 323 325 327 326 325 327 329 329 327 327 326 325 325 326 326 327 328 330 330 330 332 334 333 333 330 333 335 333 332 331 332 333 332 330 328 325 324 325 325 325 325 325 324 324 324 324 324
337 338 338 338 337 336 334 336 339 341 341 341 341 341 341 341 340 339 338 338 336 335 334 334 334 333 330 327 322 318 315 312 311 309 309 308 310 315 318 322 326 325 324 326 328 330 329 329 328 327 326 326 326 326 327 329 329 328 331 333 334 332 327 330 335 333 332 331 330 332 333 331 329 326 324 326 326 326 326 326 325 325 325 325 325
336 338 337 337 336 335 336 339 340 341 341 341 341 341 341 340 340 339 338 337 336 335 335 334 332 330 327 322 320 320 319 316 315 312 310 309 309 312 316 321 324 323 323 326 328 330 330 330 329 328 327 326 325 325 326 327 327 326 330 332 332 332 327 328 334 335 333 332 331 331 332 331 330 327 326 326 326 327 327 327 326 326 326 325 326
336 337 336 336 336 337 338 340 340 341 342 341 341 341 340 340 340 338 338 336 336 335 334 332 330 327 323 321 322 323 324 323 322 319 314 311 310 311 314 318 319 320 322 325 328 329 329 329 329 328 328 327 326 326 325 325 325 325 329 330 330 330 327 327 333 335 334 333 331 331 331 332 331 328 327 327 327 327 328 328 327 327 327 326 327
335 335 336 336 337 339 339 340 341 341 341 341 341 341 341 340 339 338 337 336 336 334 332 330 327 324 321 322 324 325 325 326 325 324 322 317 312 310 311 313 315 317 321 325 327 329 329 329 329 328 328 327 327 327 326 325 325 327 329 330 330 329 327 330 333 334 335 335 334 332 331 332 332 330 328 328 328 327 328 329 328 328 328 327 328
335 336 338 337 337 339 339 340 341 341 342 341 341 341 341 340 339 338 337 336 335 332 331 328 326 324 324 324 324 325 325 325 325 326 326 324 318 313 311 311 312 314 319 324 326 327 328 328 327 327 326 326 327 327 328 329 330 331 331 332 332 331 331 332 333 334 335 335 335 334 333 332 332 330 328 328 329 328 329 329 329 329 328 328 328
334 336 338 337 337 338 339 340 340 341 342 341 341 340 341 340 339 338 337 336 334 331 331 331 330 329 330 329 329 328 326 325 325 325 326 326 325 322 317 313 312 313 318 323 324 325 325 325 324 324 324 324 326 328 330 331 332 332 332 333 333 333 333 333 333 334 333 333 333 333 333 333 332 331 329 329 329 329 329 330 330 330 329 329 329
334 335 336 336 337 337 338 340 341 342 341 340 340 340 341 340 338 338 336 335 333 331 333 335 334 334 334 334 334 332 330 328 328 329 328 327 328 328 326 322 318 316 317 320 321 322 322 323 324 323 322 324 327 328 330 331 331 331 331 332 332 332 332 332 332 332 332 332 332 332 332 333 333 332 330 329 329 330 330 330 331 331 330 330 329
336 337 336 337 337 337 339 340 341 342 341 340 340 340 340 339 338 337 336 334 331 330 333 335 336 336 336 335 336 335 333 333 334 335 334 333 333 332 332 331 329 327 324 322 323 325 328 330 330 329 329 330 331 331 331 332 332 331 331 331 331 331 331 332 332 332 333 333 333 332 332 332 333 332 331 330 329 330 331 332 332 331 331 330 330
337 337 337 338 338 339 340 340 341 342 341 340 340 340 340 339 338 336 335 333 329 329 332 335 337 337 336 336 336 335 334 335 336 336 335 337 337 336 336 336 335 335 333 331 331 333 334 335 335 334 333 334 334 334 334 334 333 333 333 332 331 332 332 333 333 333 333 333 333 333 333 332 332 332 332 331 330 330 332 334 335 335 334 333 332
337 338 338 338 339 340 340 340 341 341 341 340 340 340 339 338 336 336 335 331 329 332 334 336 337 337 337 337 337 336 335 336 336 335 336 337 337 337 337 337 337 337 336 336 336 336 336 336 336 335 335 335 336 336 335 335 335 334 334 334 333 334 334 334 334 333 333 333 333 333 333 333 333 333 332 331 330 330 332 334 335 336 336 336 335
336 338 338 338 339 340 340 340 340 340 340 341 340 339 338 337 336 335 332 328 330 334 335 336 337 337 338 338 337 337 337 337 337 337 337 337 337 336 337 336 336 336 337 337 337 337 337 337 336 336 336 337 337 337 336 336 335 335 335 334 334 334 334 334 334 334 334 334 333 333 333 333 333 333 333 332 331 331 332 333 334 336 336 336 336
337 337 337 338 339 340 340 340 340 340 340 341 340 339 337 336 334 333 330 328 330 333 335 336 337 337 338 338 338 338 338 338 337 338 337 337 337 337 337 337 336 336 337 337 337 337 337 337 337 337 337 337 337 337 336 335 335 335 335 334 334 334 334 335 335 334 334 334 334 334 334 334 335 335 334 333 332 332 332 333 334 335 335 335 336
337 337 337 338 339 339 340 340 340 340 340 341 339 338 337 335 334 332 330 332 334 335 336 337 338 337 337 338 338 338 338 338 338 338 338 337 337 337 338 337 337 337 337 337 337 337 337 337 337 337 337 337 336 336 336 335 335 335 335 334 334 334 334 335 335 334 335 334 334 335 335 336 336 336 335 334 333 332 333 334 334 335 335 335 336
338 337 337 338 339 339 340 340 340 341 340 340 339 338 336 336 335 332 332 335 337 338 338 339 338 337 338 338 338 338 338 338 338 337 338 337 337 337 338 338 338 337 337 337 337 337 337 337 337 337 337 337 336 336 336 336 336 335 335 335 334 335 335 335 335 335 335 335 335 335 336 336 336 336 336 336 335 335 335 336 336 336 336 335 335
337 338 338 339 339 339 340 340 340 340 340 340 339 337 336 336 335 333 334 336 337 338 339 338 337 338 338 338 338 339 338 338 338 337 337 338 338 338 338 338 338 338 338 338 337 337 337 337 337 337 337 337 337 336 335 335 335 335 335 335 335 334 335 335 335 335 335 335 336 336 336 336 336 336 336 336 336 336 336 337 336 336 336 336 335
337 338 338 339 338 339 340 339 339 339 339 339 339 338 336 335 334 333 334 336 337 338 338 338 338 338 338 338 339 339 339 338 337 337 337 338 338 338 338 338 338 338 338 338 337 337 337 337 337 337 337 337 337 335 334 334 334 335 335 335 334 334 335 335 335 335 335 335 335 336 336 336 335 335 335 335 334 334 334 334 335 335 335 335 335
337 337 338 338 338 339 339 339 339 339 339 339 339 337 336 335 334 334 336 337 337 338 338 338 338 338 338 339 339 339 339 338 337 337 337 338 337 338 338 338 338 338 338 338 338 338 338 338 337 337 337 336 336 334 334 334 334 334 334 334 333 334 333 333 333 333 334 334 335 335 334 334 333 333 332 331 331 331 330 331 333 334 334 334 334
337 337 337 338 338 337 338 338 339 338 338 338 339 337 335 335 335 336 337 337 337 338 337 338 338 339 339 339 340 339 339 338 338 337 338 338 337 337 337 338 338 338 338 338 338 338 337 337 337 337 336 335 334 334 334 333 333 333 333 332 332 332 332 332 332 332 332 332 332 331 330 330 330 329 329 328 328 328 328 330 331 332 333 332 333
337 336 336 337 336 337 338 338 338 338 336 337 338 336 335 335 336 336 336 337 338 337 337 338 338 339 339 340 340 339 338 338 338 338 338 338 337 337 337 338 338 337 337 337 337 337 336 336 336 336 335 334 333 333 333 332 332 332 331 330 330 330 330 331 330 330 329 328 328 327 326 325 325 325 325 325 326 326 327 328 327 328 329 329 330
337 336 337 337 337 338 338 338 337 337 336 336 337 336 335 335 335 336 337 338 338 338 338 338 339 339 339 339 339 338 337 337 338 338 338 337 337 337 337 337 337 337 337 336 336 335 335 335 335 334 334 333 332 332 331 331 331 330 329 328 329 329 329 328 327 327 326 325 324 323 322 321 320 320 322 323 323 324 325 325 325 324 325 326 327
337 338 339 339 339 339 339 338 337 337 336 335 335 335 335 335 336 337 338 339 338 338 338 338 338 338 337 337 337 337 336 336 337 337 337 337 337 337 337 337 336 336 336 335 335 334 334 334 333 333 333 332 332 331 331 330 331 329 327 328 327 327 327 326 324 323 323 322 321 319 318 317 316 316 318 319 319 320 322 322 321 321 321 321 321
338 339 340 340 340 339 339 338 337 336 335 334 334 335 335 336 337 338 338 338 338 338 337 337 337 336 336 336 336 337 336 336 337 337 337 337 337 336 336 335 335 334 334 334 334 333 332 332 332 331 331 331 330 330 329 329 329 327 326 327 326 326 325 323 321 320 320 319 316 313 312 311 312 313 314 316 315 316 318 318 317 317 317 316 316
339 339 340 340 339 339 339 338 338 337 335 334 335 335 336 337 338 337 337 337 337 337 336 336 336 336 336 335 336 336 337 337 337 337 336 336 336 335 335 334 333 333 333 333 332 331 331 330 330 329 329 328 328 327 327 327 327 326 326 326 325 324 323 320 319 318 317 314 309 306 305 305 307 309 311 312 311 311 314 315 315 314 313 312 312
338 338 339 339 339 338 338 338 338 337 334 334 335 336 337 337 337 336 336 336 336 335 335 335 335 335 335 335 336 336 336 337 336 336 336 335 335 334 334 333 332 332 331 331 330 329 328 328 328 327 326 325 324 324 324 324 324 324 325 324 323 322 321 319 318 316 313 309 305 301 300 301 304 306 308 308 307 307 309 311 311 311 309 308 308
337 338 337 338 338 337 338 337 337 336 335 335 335 336 336 336 336 336 335 335 335 335 335 335 335 335 335 335 336 336 336 336 335 335 334 334 333 333 332 331 330 329 329 328 327 327 326 325 325 325 324 323 322 321 321 321 321 323 324 323 321 320 319 318 317 314 310 306 302 300 298 298 301 303 304 304 303 303 304 305 306 305 304 303 302
336 337 337 337 337 336 336 336 335 335 335 336 336 336 336 336 335 335 334 334 334 334 334 334 334 334 334 335 335 334 334 334 333 332 331 331 330 330 329 328 327 326 326 325 324 324 323 323 322 322 321 320 319 318 317 318 319 321 324 322 319 318 317 317 315 312 308 304 300 298 297 296 298 301 301 301 299 298 299 300 300 299 298 298 298
335 336 336 335 336 335 335 335 335 335 336 336 336 336 336 336 335 334 334 333 333 334 333 332 332 332 332 332 332 331 331 330 329 328 328 327 327 326 326 325 324 323 323 322 321 321 320 319 319 319 318 317 317 316 316 316 317 319 320 321 321 319 316 314 314 312 308 304 299 297 296 296 297 299 299 299 297 296 296 297 297 296 296 296 296
335 335 335 335 334 335 334 334 335 335 335 336 336 336 336 336 335 334 334 333 332 332 331 330 329 330 330 329 329 328 328 327 326 325 325 324 324 324 323 323 322 321 321 320 319 318 317 316 317 318 316 315 314 315 315 314 316 317 318 322 323 322 321 315 312 312 309 305 300 296 296 295 296 297 298 299 298 296 295 296 296 296 295 296 296
333 334 334 334 334 334 334 334 335 335 335 336 336 336 335 335 334 334 333 333 331 330 330 327 327 328 327 326 325 324 324 324 323 323 322 322 322 321 321 321 320 319 318 318 316 314 314 314 316 316 315 313 312 312 313 312 313 316 320 323 320 321 326 318 311 311 310 307 301 296 296 295 295 296 297 299 299 296 295 296 296 295 295 295 295
332 333 333 333 334 333 334 334 335 336 335 336 336 335 335 333 332 331 331 330 328 328 328 325 324 326 324 323 322 322 322 322 321 320 320 320 320 319 319 319 318 317 315 314 313 311 311 312 313 314 313 312 310 309 310 310 310 311 315 319 319 322 322 314 311 312 310 308 302 295 295 296 295 295 296 299 299 296 295 295 296 295 295 295 295
332 332 333 333 333 333 333 334 335 335 336 335 335 335 334 333 332 330 329 328 325 325 326 324 323 323 322 321 320 320 320 320 320 319 318 318 318 317 317 316 315 313 312 310 309 309 309 310 310 311 311 311 310 308 307 307 307 307 307 309 312 314 311 309 313 313 309 307 302 296 295 296 295 295 295 298 299 297 295 295 295 295 294 295 295
332 332 333 333 333 333 333 333 335 336 335 335 334 334 334 333 332 331 330 328 325 324 324 323 322 321 320 320 319 319 319 319 318 317 317 317 316 315 314 313 312 310 309 308 308 308 308 308 308 309 310 310 309 308 306 306 305 304 304 303 302 302 302 305 309 312 310 307 301 296 295 295 295 295 295 296 298 297 295 295 295 294 294 294 294
333 333 333 333 333 333 333 333 335 335 335 334 334 333 334 332 332 332 330 329 327 324 322 321 321 320 319 319 318 318 318 318 317 317 316 315 314 313 312 311 309 309 308 308 308 308 308 308 308 308 308 308 307 306 305 305 304 302 301 300 299 297 297 299 302 304 307 307 303 297 295 295 295 295 295 295 297 297 295 294 295 294 294 294 294
334 334 334 334 333 333 333 333 334 335 334 333 333 333 334 333 332 331 329 327 326 323 320 320 319 319 319 318 318 318 318 317 317 317 315 314 313 312 310 309 309 309 309 308 308 308 307 307 307 307 306 306 305 305 304 302 301 300 298 297 297 295 295 295 297 297 298 302 304 299 295 296 295 295 295 295 296 296 295 294 294 294 294 294 294
334 334 334 334 334 333 332 333 334 335 333 332 333 333 333 332 332 331 329 326 323 321 319 319 318 319 319 318 317 317 317 316 316 315 314 313 312 311 309 309 309 309 309 308 307 307 307 306 306 306 306 305 304 303 302 300 298 296 295 295 295 295 295 295 295 296 295 297 300 298 295 296 296 296 295 294 295 296 294 294 294 294 294 294 294
335 334 334 334 334 333 333 333 334 334 333 332 333 333 332 332 332 331 329 326 323 321 320 318 318 319 319 317 316 316 315 315 314 313 313 312 312 311 309 308 308 308 308 307 306 306 306 305 305 305 304 303 302 300 299 297 295 294 294 294 294 294 295 295 295 295 295 296 298 298 295 295 296 295 294 294 294 295 295 293 294 294 294 294 294
Wind_Speed
20 22 21 20 19 19 19 18 18 20 20 18 16 15 16 16 17 16 16 16 16 17 17 17 17 18 18 17 16 15 15 14 15 14 14 13 13 12 12 12 12 12 12 12 13 13 12 13 14 14 14 14 14 13 13 14 14 14 14 14 13 12 12 12 11 12 12 11 10 8 8 8 8 8 8 7 7 7 7 7 7 8 9 9 9
23 23 22 20 20 20 19 19 18 19 20 18 16 15 16 17 17 16 16 16 16 16 17 17 17 17 17 16 16 15 14 14 14 14 13 13 13 13 12 12 13 13 13 13 12 12 13 13 14 14 14 14 14 14 15 15 15 15 15 14 14 13 13 12 11 11 11 10 9 8 8 7 8 8 8 7 6 6 6 6 7 8 8 8 8
24 24 22 20 20 20 19 20 18 19 20 18 16 15 16 17 18 16 16 16 16 16 16 16 16 16 17 16 16 15 14 13 13 13 13 12 12 12 12 12 13 14 13 13 13 12 13 13 14 14 15 15 15 16 15 15 16 16 15 15 15 15 14 13 11 10 10 9 8 8 7 7 8 8 7 6 6 8 7 7 8 8 8 7 7
24 25 22 20 20 20 20 20 18 19 19 17 16 16 17 17 18 17 16 16 16 16 16 16 16 16 16 16 16 14 13 13 12 12 12 11 11 11 11 12 12 12 12 13 13 12 13 13 13 14 15 15 15 15 14 14 14 14 14 13 13 13 12 12 11 10 10 9 9 8 8 8 9 7 5 5 5 8 8 7 7 8 7 6 6
25 25 23 22 21 21 20 20 19 19 18 17 17 17 18 18 18 17 17 16 16 16 16 16 15 15 15 15 15 14 13 12 11 11 11 11 10 10 11 11 11 12 12 12 12 12 13 14 13 14 14 14 14 14 13 13 13 12 12 11 9 9 9 10 9 9 9 9 9 9 10 10 9 7 5 5 5 7 7 7 6 6 6 5 6
26 25 24 23 22 22 21 21 19 19 18 17 17 18 18 18 18 18 17 16 16 15 15 15 15 15 15 15 14 13 13 12 11 11 10 10 9 10 11 10 10 11 11 11 12 12 12 13 14 14 14 13 13 13 13 12 11 11 10 9 7 7 6 7 6 6 6 7 8 9 10 9 8 7 6 5 5 6 7 7 5 5 5 4 5
26 25 24 24 24 22 22 21 19 19 18 17 18 18 18 18 18 18 17 17 16 15 15 15 15 14 14 14 14 13 12 11 10 9 9 9 9 9 9 9 8 9 10 11 11 12 13 13 14 14 13 12 12 12 12 11 10 10 9 7 6 4 2 2 3 3 4 5 6 7 8 8 7 6 5 5 5 5 5 7 5 5 4 4 5
26 25 25 25 24 23 23 22 20 19 18 18 18 18 19 18 18 18 17 17 16 15 15 15 14 14 13 14 13 12 11 10 9 8 8 8 8 8 7 8 8 8 9 10 11 12 14 13 13 13 12 12 11 11 10 10 9 8 7 5 4 2 2 1 1 2 3 4 5 6 7 7 7 6 4 4 3 3 4 5 4 4 3 3 5
25 25 24 24 23 24 24 23 20 19 19 19 19 19 19 18 18 17 17 17 16 15 14 14 14 13 13 13 12 12 11 10 8 7 7 7 7 6 6 6 7 8 9 10 11 12 13 12 12 12 11 11 10 10 9 8 8 7 6 5 4 2 2 2 2 2 2 3 4 5 6 6 5 5 4 4 3 4 4 5 4 3 3 3 4
24 23 23 24 23 24 24 23 21 20 20 20 19 19 19 18 18 17 17 16 16 15 14 14 13 13 12 12 11 11 10 9 7 6 6 6 5 4 4 4 5 7 8 10 11 11 11 11 11 11 10 9 9 9 8 7 7 6 6 5 5 4 3 3 3 3 3 3 4 5 5 5 4 4 4 6 6 6 6 6 5 4 2 2 2
22 22 23 23 22 23 23 23 21 21 21 20 19 18 18 18 18 17 17 16 16 15 14 14 13 12 11 10 9 9 8 8 7 5 5 4 4 3 2 3 4 6 8 9 11 11 10 9 9 8 8 8 8 8 7 6 5 6 6 7 6 5 5 5 4 3 3 3 4 4 4 4 3 4 5 6 7 8 7 6 6 4 4 3 1
22 22 22 21 21 22 22 21 21 21 20 20 19 18 18 17 17 17 16 16 15 15 14 13 12 11 10 8 7 7 7 6 5 5 4 4 4 3 2 3 3 5 7 9 11 11 10 9 8 7 6 6 6 5 5 4 5 6 6 7 8 7 6 7 6 3 2 3 3 3 4 4 4 5 5 6 7 8 8 7 6 5 7 5 3
24 23 22 21 21 21 21 21 21 21 20 19 19 18 17 17 17 16 16 15 15 14 14 13 11 10 8 7 6 6 6 5 4 3 3 4 5 4 4 3 4 5 6 8 10 11 10 9 7 6 5 5 4 4 3 3 4 5 6 7 9 9 8 8 8 6 3 2 2 3 4 4 4 5 5 6 8 9 9 8 6 6 7 6 5
25 24 23 22 21 20 20 21 21 21 20 19 19 18 17 17 16 16 15 15 14 13 12 11 9 8 7 6 6 6 6 5 4 3 2 3 4 5 5 4 5 7 7 8 9 10 9 8 8 7 5 4 3 3 2 3 4 5 5 6 8 10 10 10 10 8 4 2 2 3 4 5 5 6 6 6 7 8 9 9 8 7 7 7 6
24 24 23 22 21 21 20 21 22 21 20 20 19 18 17 17 15 15 15 14 13 12 11 9 8 7 6 6 6 6 7 7 6 4 4 4 5 5 5 6 7 7 8 8 8 9 9 8 8 7 6 4 3 2 1 2 2 4 4 5 7 9 11 11 12 11 7 3 3 4 4 5 6 6 6 6 7 8 9 9 9 9 9 9 7
23 22 22 22 21 21 21 20 20 21 20 19 19 18 17 16 15 14 14 14 12 11 10 8 7 6 7 7 8 9 10 10 10 8 7 7 6 6 6 7 8 8 8 8 8 8 8 8 8 7 6 4 3 2 1 1 1 3 3 4 5 7 10 10 11 12 10 6 4 4 4 5 6 6 6 6 6 7 8 9 9 9 9 10 9
22 21 21 21 20 21 21 20 20 20 19 19 18 17 16 15 14 14 14 13 12 10 9 7 6 6 7 9 10 12 13 14 13 12 11 9 8 7 7 8 9 8 8 8 7 7 7 8 8 7 6 4 3 2 1 1 2 3 3 4 4 6 9 9 8 11 12 9 5 4 5 6 6 7 6 5 6 7 8 9 9 9 9 9 9
22 21 21 20 20 21 20 20 20 19 19 18 17 16 16 14 14 14 14 12 11 9 8 7 7 8 9 10 11 13 14 14 14 14 14 12 10 8 8 8 9 9 8 8 7 6 7 6 7 7 6 5 4 2 1 1 2 3 3 4 5 6 8 7 6 8 11 11 8 5 5 6 7 7 7 6 6 7 8 8 9 9 9 9 9
22 22 22 21 22 21 21 21 20 20 19 19 17 16 15 14 14 14 13 12 11 9 8 8 8 9 10 11 12 13 13 14 14 14 15 14 12 9 8 8 8 8 8 7 6 5 5 5 6 6 5 5 4 3 2 3 3 4 4 5 6 6 7 6 6 7 9 10 9 7 6 6 7 8 8 7 6 7 8 9 9 10 10 10 9
22 23 22 23 23 23 22 21 20 20 19 18 17 16 14 14 14 14 13 11 10 9 9 10 10 10 10 11 12 12 13 13 13 13 14 14 13 12 10 8 7 8 8 6 5 4 4 4 4 4 4 4 3 3 3 4 5 5 5 5 6 6 6 6 6 7 9 10 10 9 7 7 7 8 9 8 7 7 8 9 10 10 11 11 10
22 23 23 23 24 23 23 22 21 20 19 18 17 16 15 14 15 14 12 11 10 10 11 12 11 11 11 11 12 12 12 12 12 12 12 12 13 13 12 10 8 7 6 5 4 3 2 2 3 3 3 4 3 2 3 4 5 5 5 5 5 5 6 6 7 8 9 10 10 10 9 8 7 8 9 9 9 8 9 10 11 11 11 11 11
22 23 23 24 24 24 22 22 21 20 20 18 17 17 16 15 15 13 12 11 10 12 13 12 11 11 11 11 11 11 11 11 12 12 11 11 11 11 11 11 9 7 6 4 3 2 2 3 3 3 3 4 4 2 3 4 5 5 5 4 5 5 6 7 7 8 9 9 10 11 10 8 8 9 9 10 10 9 10 11 12 12 12 12 12
23 23 23 24 24 24 22 22 21 20 20 19 18 17 16 16 15 13 12 11 11 12 12 11 10 10 10 10 10 10 10 10 10 10 9 9 9 9 9 9 8 7 6 5 5 4 3 3 4 4 5 5 5 3 3 5 5 5 5 5 5 5 6 7 7 8 9 9 10 11 10 9 9 9 10 10 10 10 11 12 13 13 13 14 13
23 23 23 23 23 22 21 21 19 19 20 18 18 18 16 16 15 14 12 11 11 12 11 10 10 9 9 8 8 8 8 8 7 7 7 7 7 6 6 6 6 5 5 5 5 5 4 3 4 4 4 4 5 4 4 5 5 5 6 5 5 5 5 6 7 8 8 9 10 11 10 9 9 9 10 10 10 11 11 13 13 14 14 14 14
23 23 22 23 23 21 21 20 18 19 20 18 18 17 16 15 14 13 12 11 12 12 11 9 9 8 8 7 6 6 7 7 6 6 5 5 5 4 3 3 3 3 4 4 4 4 3 3 3 3 3 3 4 4 4 5 5 6 6 5 5 5 6 6 7 8 8 9 9 10 10 9 9 9 10 10 10 10 12 13 14 15 15 14 14
22 23 22 22 22 20 20 20 18 19 19 18 17 17 16 15 14 13 12 12 12 12 10 8 7 7 6 6 5 5 5 6 6 5 4 4 3 3 2 2 2 3 3 3 3 4 4 4 4 3 3 4 4 4 5 6 6 6 6 5 5 5 6 6 7 8 8 8 8 9 9 9 9 9 9 10 10 10 12 14 14 15 15 14 14
23 22 22 22 22 19 18 19 18 19 19 18 17 17 17 15 14 13 12 12 12 11 8 6 5 5 4 4 3 3 4 5 5 5 4 3 2 1 1 2 2 3 4 3 3 4 4 4 4 4 4 4 4 5 6 7 7 7 6 5 5 6 6 6 7 8 8 8 9 10 10 10 10 10 9 9 10 11 13 15 15 14 15 16 15
21 21 21 22 22 21 19 19 19 19 18 18 17 17 17 16 15 14 13 12 11 9 7 6 5 4 3 2 2 2 3 4 4 4 4 3 2 1 1 1 2 3 3 4 4 3 3 3 3 3 4 4 5 6 6 7 6 6 6 6 6 6 7 7 8 8 8 9 10 10 10 11 11 12 12 11 11 12 14 16 16 15 15 16 17
21 21 21 21 22 22 21 20 19 19 18 18 17 16 16 16 15 14 14 12 10 8 7 6 6 5 3 3 2 1 2 3 3 3 3 2 1 0 0 0 1 2 2 3 3 2 2 2 2 3 4 4 5 6 6 6 6 6 6 7 7 8 8 8 9 9 9 9 9 9 10 10 11 11 12 12 12 12 13 15 15 14 14 14 15
20 21 20 21 22 22 21 20 20 19 18 17 16 16 15 15 14 13 13 12 10 8 7 6 6 5 4 3 2 1 1 1 0 1 1 0 0 1 1 1 1 2 1 1 1 2 2 2 2 3 3 4 5 6 6 6 6 7 7 8 9 9 9 9 9 9 8 8 7 7 8 9 10 11 11 11 12 12 12 12 13 13 12 12 14
20 20 21 22 22 22 21 20 19 19 18 17 16 16 15 14 13 12 11 10 9 7 7 7 6 5 4 4 2 1 1 2 2 1 1 2 1 2 2 2 2 2 1 0 1 2 2 3 3 3 4 5 6 7 7 7 7 7 8 9 9 9 9 9 9 9 9 8 8 8 8 9 10 11 11 12 13 13 13 13 12 12 12 12 14
19 21 22 22 22 21 20 20 19 18 18 17 17 16 14 14 12 11 10 8 7 7 7 7 7 6 5 5 3 3 4 4 3 2 2 2 2 2 2 2 2 2 1 1 1 2 2 2 3 4 5 5 6 6 7 7 7 8 8 9 9 9 10 9 9 8 8 7 7 9 10 11 11 12 12 13 15 16 16 16 15 14 13 14 14
19 20 21 22 20 19 19 19 18 18 17 18 17 15 14 13 11 9 8 7 6 6 8 9 8 7 6 6 5 5 5 5 4 3 2 2 2 2 2 3 2 1 1 1 1 2 2 2 3 4 4 5 6 6 6 7 7 8 8 9 10 10 9 9 8 8 8 9 10 12 13 14 14 14 15 15 17 18 19 19 18 16 15 16 15
19 20 21 21 19 18 18 18 17 17 16 17 17 15 14 12 10 8 7 7 6 7 8 9 9 8 7 6 5 5 5 5 4 3 2 1 1 2 2 2 1 1 1 1 2 2 2 3 3 4 4 5 5 5 6 6 7 8 9 10 10 10 10 10 11 12 12 14 14 15 17 17 17 17 17 18 18 19 21 21 20 18 17 17 17
20 21 21 21 19 18 17 17 16 15 15 16 16 15 13 11 9 7 7 7 7 8 9 9 8 7 7 6 6 5 5 5 5 3 2 1 1 3 2 1 0 1 2 2 3 3 3 3 3 3 3 4 4 5 6 7 8 10 11 11 11 11 12 13 14 15 16 16 17 18 19 19 19 19 19 19 19 20 21 21 21 20 19 18 18
20 21 20 19 19 18 17 16 15 14 14 15 16 14 12 9 8 8 9 9 9 9 8 7 6 6 5 6 6 5 4 5 4 3 3 2 2 3 2 1 1 2 2 2 2 3 3 3 4 4 4 5 5 6 7 7 9 10 10 9 10 11 13 15 16 17 17 17 19 20 20 20 20 20 19 19 20 20 20 20 20 20 19 19 18
18 19 19 18 18 18 17 16 14 14 14 15 15 13 11 10 9 10 10 10 9 8 6 5 4 4 4 5 6 5 4 4 4 4 4 4 3 3 2 1 1 2 3 3 3 3 3 4 4 5 6 7 7 8 8 8 9 9 8 8 10 12 14 16 17 18 17 18 20 21 20 20 20 20 19 19 20 20 19 19 19 19 19 19 18
17 17 18 18 19 18 17 15 14 14 14 15 15 13 12 11 11 10 10 9 8 6 5 4 3 3 4 5 6 6 5 5 5 5 4 4 3 2 2 1 2 3 4 5 5 4 4 4 5 6 7 8 8 9 10 10 9 7 7 10 12 13 16 17 18 18 19 20 22 22 22 20 20 20 20 20 20 20 19 17 17 17 18 18 18
16 17 17 18 18 17 16 15 15 15 16 16 15 14 13 12 11 10 9 8 7 6 5 5 4 5 5 6 7 7 6 6 5 5 4 3 3 2 1 1 3 5 7 7 6 4 4 5 5 6 7 8 9 9 10 10 8 6 9 13 14 16 17 17 18 20 21 22 23 24 23 22 21 21 20 20 20 20 20 18 18 18 19 19 18
17 18 17 17 18 17 16 16 16 17 18 18 17 16 15 13 12 11 10 9 8 8 7 7 7 8 8 9 9 9 8 7 6 5 4 3 2 0 1 3 5 7 7 6 5 4 5 6 6 6 6 6 7 9 10 8 6 9 13 15 16 16 17 17 18 20 22 22 23 25 25 24 22 22 22 21 21 21 21 20 20 20 20 20 19
17 18 18 18 18 19 19 19 19 19 20 20 19 18 17 15 14 13 12 11 9 10 10 10 10 11 11 11 11 10 9 8 7 5 4 2 1 1 2 3 4 5 5 5 5 5 6 6 5 4 5 6 9 12 10 6 7 10 13 15 16 17 17 18 19 20 21 23 24 26 27 26 24 23 22 22 23 23 23 22 21 22 23 23 21
19 20 20 20 21 21 21 22 21 21 21 20 20 19 18 17 16 15 14 13 11 12 14 14 13 13 13 12 11 10 9 7 6 4 2 1 1 1 2 3 3 4 4 4 4 4 5 4 3 3 6 10 13 15 12 8 6 7 8 8 9 10 12 16 19 19 20 22 24 26 28 28 25 23 21 21 23 25 25 24 23 24 25 25 24
20 20 21 22 22 22 23 22 22 21 20 20 19 19 18 17 15 16 16 15 14 15 15 15 15 13 12 11 9 8 6 5 4 3 2 2 2 2 2 3 3 3 3 3 3 4 4 4 4 5 8 12 16 18 17 14 9 7 6 4 2 2 3 9 14 16 16 19 23 26 27 28 26 22 21 21 23 26 27 25 24 26 27 27 26
20 19 19 20 21 21 23 22 22 21 20 19 19 18 18 16 15 16 17 16 17 17 16 15 14 12 11 10 8 7 5 4 4 4 4 3 3 3 2 2 2 2 3 3 3 4 5 6 6 7 8 12 18 21 20 19 15 9 4 2 1 1 1 4 8 9 11 14 20 25 25 27 27 22 21 21 22 26 28 25 25 28 28 28 27
20 20 20 20 20 21 22 22 21 21 20 20 19 18 17 16 17 19 18 18 18 17 16 14 12 12 10 9 8 7 6 5 5 5 5 5 4 3 2 2 2 3 3 4 6 7 8 8 9 9 10 13 18 22 23 22 22 17 10 5 2 2 1 4 4 3 7 11 17 23 23 24 27 25 21 20 19 24 28 26 25 28 29 29 28
20 20 21 21 21 22 22 21 21 21 21 20 20 19 18 19 21 23 22 21 20 16 15 14 12 12 11 9 9 7 6 6 6 7 7 6 4 3 3 2 3 5 6 8 10 12 12 12 11 11 13 13 16 21 23 22 24 24 21 16 10 6 2 2 2 0 4 7 11 20 23 21 24 26 23 20 18 22 28 27 25 28 30 30 30
20 20 21 21 21 22 21 21 21 21 21 20 20 19 19 22 23 23 23 23 20 17 15 14 12 12 11 9 8 7 7 6 7 7 7 5 4 3 4 5 6 9 10 11 13 14 15 14 13 14 15 13 14 20 21 18 20 22 22 20 19 17 11 6 3 0 2 3 7 16 22 20 21 26 25 21 17 20 27 28 26 29 31 31 31
19 20 20 21 21 21 21 21 21 21 21 21 21 20 21 23 23 22 21 21 19 18 16 14 13 11 10 9 8 7 6 6 6 7 6 3 3 4 6 7 9 11 12 13 15 15 15 16 16 16 18 17 17 21 21 19 18 18 17 18 19 20 21 17 10 5 2 1 3 9 18 19 18 23 26 21 16 18 26 28 26 28 30 31 32
19 20 21 21 21 21 21 22 21 22 21 21 22 21 23 24 23 22 21 19 18 19 17 15 14 12 10 9 7 6 5 4 4 5 3 2 5 7 8 9 10 12 13 15 15 15 16 17 18 19 20 21 21 21 22 22 21 18 16 16 16 17 21 22 18 13 7 3 2 3 13 17 14 18 24 21 16 15 24 28 26 27 30 31 32
20 21 21 21 21 20 21 22 22 22 22 22 23 23 25 25 23 22 22 20 19 19 18 16 14 12 10 9 7 5 3 2 1 1 2 6 7 8 9 10 12 13 14 15 15 16 18 19 20 20 20 22 21 21 22 22 22 22 21 21 20 18 18 19 19 17 11 6 3 2 10 14 9 13 22 23 17 13 21 29 27 28 31 31 32
21 21 21 21 21 21 22 23 23 22 22 23 25 25 25 25 23 23 22 22 21 20 18 17 15 12 10 9 6 4 3 1 2 4 6 8 8 9 9 11 13 14 14 15 15 17 18 19 20 21 21 22 21 21 23 22 23 24 25 25 26 23 19 16 16 17 14 8 3 3 11 16 9 12 22 24 19 14 19 30 28 27 31 31 32
Wind_Direction
162 155 150 152 153 153 156 157 151 148 149 149 147 146 139 132 132 127 121 118 115 115 115 115 113 112 112 112 112 111 110 111 111 108 104 101 97 94 94 90 76 71 73 68 71 85 90 86 90 95 98 103 106 107 104 104 104 104 105 106 105 106 104 97 95 96 95 97 92 86 78 64 62 66 72 80 78 75 75 77 83 76 70 65 57
157 153 151 150 153 153 158 158 151 150 150 150 148 148 140 134 131 126 122 118 116 117 116 115 113 113 112 112 113 112 112 113 113 109 104 101 97 92 91 82 67 68 76 74 73 85 96 92 93 96 97 103 105 107 107 107 108 107 106 106 107 107 105 100 102 103 104 103 95 90 84 76 66 59 62 65 53 58 79 74 74 66 61 66 57
151 151 150 150 153 154 159 157 151 150 151 149 149 147 137 132 129 124 122 119 119 117 115 114 113 113 113 113 113 113 114 116 116 111 105 100 95 90 86 78 64 66 71 73 78 87 95 97 99 102 101 103 105 108 107 106 108 107 105 102 99 96 93 92 95 97 97 93 87 86 86 85 77 73 64 59 44 48 71 64 61 63 55 54 49
151 150 147 151 153 155 159 156 152 151 150 148 149 144 133 130 126 123 123 120 120 117 116 115 114 114 114 114 114 116 117 118 119 114 108 101 96 92 88 81 69 70 72 71 77 87 97 101 104 108 109 107 108 109 108 109 108 106 105 100 93 90 87 82 82 86 87 83 79 79 82 90 90 91 70 69 56 38 60 68 61 60 52 40 34
152 148 149 153 154 157 158 156 153 151 148 148 147 138 130 128 126 125 124 121 120 117 117 115 114 114 114 116 117 119 119 120 120 116 111 105 102 98 89 80 71 72 77 76 78 87 98 104 107 113 115 114 112 111 112 114 110 108 109 104 96 94 92 83 77 77 81 81 76 73 78 88 96 102 82 73 52 29 48 62 67 61 53 41 37
150 149 152 153 155 159 159 156 153 149 147 145 140 134 130 129 128 127 125 122 120 118 117 117 117 117 117 118 120 121 121 122 122 118 113 107 102 93 85 79 74 71 76 78 82 94 103 105 110 115 118 118 117 116 115 114 111 111 113 112 110 105 98 91 88 77 75 80 75 72 75 78 83 94 93 83 56 35 31 28 54 66 51 43 52
149 151 154 155 156 160 160 155 150 147 144 140 136 133 132 130 130 128 126 124 122 122 121 123 123 121 120 119 120 120 121 120 120 116 110 104 96 88 84 83 78 75 80 82 86 101 110 108 111 116 118 119 119 119 118 116 114 113 111 108 105 97 74 80 107 104 88 89 81 74 75 74 70 77 82 84 67 42 11 7 43 65 48 49 64
152 155 156 157 158 161 160 153 149 147 142 138 137 136 135 133 133 130 129 127 125 126 124 124 122 121 119 119 119 119 118 116 116 115 110 105 98 94 91 87 81 76 79 86 93 108 116 112 115 120 121 122 123 123 122 121 117 112 105 91 74 44 359 5 105 139 122 104 94 81 77 76 71 74 71 71 65 23 355 8 53 68 49 75 77
156 157 157 159 159 163 159 151 149 147 142 139 140 140 138 137 135 133 131 128 125 124 122 122 121 120 118 119 120 120 120 119 120 117 117 111 108 108 95 83 83 81 74 79 91 110 121 119 122 127 128 130 131 131 130 126 118 111 95 75 56 25 3 20 51 110 132 112 99 89 79 78 72 70 58 41 36 15 14 30 60 76 53 76 83
158 158 159 159 161 165 157 150 150 146 142 143 145 143 141 139 138 136 131 127 124 122 121 122 122 121 120 121 122 123 124 124 124 121 125 119 116 118 102 89 88 85 77 78 87 101 117 124 129 132 136 140 140 138 136 128 116 102 85 71 57 37 15 28 56 88 115 109 95 91 80 81 67 49 34 22 24 17 22 34 44 62 58 46 74
160 159 158 160 163 164 156 152 151 145 144 147 147 144 142 141 139 135 131 129 127 126 126 125 123 120 120 120 121 122 122 124 128 128 129 127 128 129 130 121 101 90 84 81 87 98 110 121 130 134 140 143 143 140 133 122 103 90 80 71 61 42 17 22 44 72 93 92 81 81 72 73 55 39 30 17 22 22 24 29 27 29 21 19 51
160 158 157 160 164 162 156 155 149 143 146 149 147 145 145 143 139 136 134 133 131 131 130 126 122 119 116 115 115 113 111 115 126 131 132 143 145 130 132 151 117 101 95 85 90 104 114 119 127 134 141 142 140 136 124 109 93 85 75 68 63 51 29 21 24 30 56 68 60 55 46 53 43 35 29 18 22 26 27 25 22 6 359 7 4
159 158 159 162 167 164 158 153 146 144 148 149 148 148 147 144 141 140 138 135 134 132 127 122 120 119 115 111 109 104 104 104 113 129 140 156 160 138 126 139 127 119 109 92 93 105 117 119 122 131 138 141 138 133 122 101 91 79 67 67 61 54 43 32 28 19 7 12 29 28 23 30 31 31 26 18 19 21 22 20 17 0 355 3 356
159 159 163 165 166 165 159 151 145 147 152 152 151 151 148 146 145 143 139 135 133 128 122 120 119 117 112 106 103 101 103 103 104 107 117 145 160 150 133 127 132 134 117 97 93 99 110 116 118 126 131 140 140 136 123 96 87 69 60 63 58 54 46 37 33 25 3 328 335 351 4 10 12 22 24 17 14 12 13 13 11 4 2 6 1
161 162 165 165 163 164 159 150 148 152 156 156 153 151 149 148 148 144 138 134 130 124 121 119 119 115 109 103 100 97 98 100 98 93 96 113 130 137 132 134 141 140 122 103 96 95 101 107 112 121 128 138 142 145 127 86 72 52 51 57 54 50 39 32 30 27 17 340 314 322 345 353 354 8 19 15 9 4 2 5 7 4 4 4 3
164 165 165 163 163 163 156 152 154 157 159 157 154 152 152 152 149 144 136 131 127 124 123 121 121 114 110 106 101 96 93 94 91 86 89 98 109 118 126 138 147 143 128 112 102 98 98 99 104 112 120 132 137 145 138 57 28 23 32 44 45 38 27 25 25 24 20 3 319 308 326 333 340 351 7 12 2 357 355 357 1 1 0 358 356
165 166 165 162 162 159 155 158 161 160 160 159 157 156 156 154 151 144 135 130 128 128 127 124 121 115 114 110 103 97 92 88 83 79 82 90 100 112 125 138 148 146 135 123 111 104 100 96 97 102 108 115 116 118 92 12 348 1 18 17 21 18 13 19 23 19 18 14 351 315 311 318 326 334 348 1 352 349 350 350 353 354 354 354 351
165 165 164 162 160 157 159 163 164 163 162 160 160 159 158 156 152 143 135 132 132 131 128 122 118 118 117 110 103 96 89 84 80 75 75 80 91 107 124 138 148 147 139 130 119 110 103 97 93 94 97 100 99 93 72 25 3 5 19 5 358 357 3 16 19 15 17 17 10 345 319 313 314 318 328 342 341 338 340 342 345 345 346 348 349
164 165 162 163 162 161 165 167 168 166 164 164 163 160 159 158 151 142 137 136 136 132 125 119 118 118 115 109 103 96 90 84 80 75 71 71 79 94 109 128 143 145 142 135 124 115 103 94 87 86 85 86 85 77 65 52 35 23 23 8 358 356 2 14 16 15 15 13 8 355 332 313 308 307 311 322 328 327 331 333 335 337 338 340 343
165 166 165 165 164 165 169 172 172 170 169 167 165 162 160 159 150 143 141 141 137 129 123 119 117 114 109 106 101 95 90 85 80 75 71 70 73 81 89 104 127 137 141 138 128 115 98 82 72 69 66 64 66 71 70 54 35 21 13 6 3 1 7 13 14 10 7 5 2 356 341 317 307 302 300 307 315 316 322 325 327 329 329 331 333
168 169 167 166 167 170 173 175 176 174 172 168 168 165 160 158 151 147 146 143 136 129 123 118 116 111 106 103 99 95 90 86 81 76 73 70 70 74 79 87 102 120 130 134 130 111 78 49 36 36 39 42 54 73 65 38 19 7 359 1 3 4 9 11 6 3 4 2 357 354 346 328 312 303 298 298 305 308 314 317 317 321 321 321 324
170 171 170 171 173 175 177 178 178 177 173 169 169 166 163 159 153 151 149 145 138 134 128 120 117 112 108 104 100 97 92 89 83 77 72 67 67 71 76 81 89 99 110 118 114 89 55 36 29 32 41 44 52 62 35 19 12 2 348 349 358 1 3 4 359 357 1 0 356 354 346 335 320 308 302 296 299 301 308 312 311 313 315 314 314
173 174 175 178 179 179 180 180 180 178 175 171 171 170 165 159 157 155 152 149 143 141 137 126 120 114 110 105 102 101 97 94 86 80 73 68 66 66 72 76 82 88 96 103 98 88 69 55 50 53 57 52 49 47 30 20 14 5 353 344 348 354 358 359 356 353 355 354 354 353 346 337 326 316 305 297 297 298 302 307 308 309 311 311 309
178 177 177 180 184 182 183 183 182 180 177 173 174 173 166 162 161 157 157 154 146 146 144 134 126 119 113 106 103 101 97 92 85 84 79 73 67 63 67 71 77 85 95 102 100 97 82 64 56 58 59 55 50 46 37 26 17 12 8 359 350 349 353 353 350 349 349 348 350 353 349 341 331 321 310 299 298 303 303 301 299 299 303 306 305
180 178 179 183 186 185 185 185 183 183 179 176 176 173 166 165 164 160 161 156 148 149 146 140 132 124 117 109 103 95 88 80 75 77 73 70 67 65 67 72 83 94 106 108 103 102 90 75 69 71 66 60 56 44 31 20 15 12 10 8 3 357 354 351 348 344 342 344 349 355 355 348 338 326 316 304 300 307 310 308 302 296 297 300 298
181 179 180 184 187 186 188 187 184 185 182 179 178 172 168 168 166 163 160 154 152 152 148 146 136 128 122 112 106 92 78 67 60 56 51 51 60 63 68 79 98 109 118 115 104 101 90 80 74 72 67 60 51 35 20 9 4 2 360 358 356 352 350 350 350 346 343 345 354 2 2 360 354 343 330 314 304 307 317 322 316 304 302 303 299
181 181 181 184 187 186 188 188 187 187 184 183 179 172 171 170 167 162 157 152 153 156 156 157 150 145 136 119 108 89 67 51 40 32 27 20 35 49 51 82 106 110 120 123 115 104 88 73 59 53 49 44 30 18 9 1 356 355 350 343 345 346 350 350 350 351 351 351 355 1 1 0 359 355 347 326 307 305 317 328 326 313 310 308 302
180 180 182 185 189 187 187 187 188 189 188 187 181 175 173 171 170 164 158 155 156 162 168 178 183 173 155 136 119 89 55 36 20 11 7 359 355 13 23 83 116 109 117 124 121 107 85 57 38 27 22 17 8 3 358 355 353 353 348 345 348 347 348 348 348 349 350 352 353 355 357 360 1 360 356 343 326 314 315 325 324 313 309 307 301
181 179 182 186 189 190 190 191 191 191 191 190 185 179 175 175 175 169 165 164 163 170 178 188 188 177 170 157 141 95 39 29 8 349 351 345 343 117 51 128 126 121 129 130 126 108 83 44 12 3 5 2 356 355 351 349 346 344 345 348 348 347 347 347 347 347 348 352 354 359 3 3 3 2 357 350 343 331 323 324 321 314 311 307 302
183 182 184 186 188 190 192 195 195 196 194 192 189 183 179 180 178 172 171 170 169 175 183 184 180 179 184 178 175 181 37 41 293 316 319 285 153 196 225 221 155 152 171 158 113 91 73 39 9 358 359 353 349 349 348 346 341 340 342 344 344 342 341 340 342 342 344 347 349 356 1 2 0 0 358 356 356 351 348 342 333 333 333 325 317
184 184 187 187 189 190 192 196 198 200 197 193 191 187 184 183 180 176 176 177 174 179 188 187 183 190 198 196 201 212 211 210 215 214 168 159 167 208 232 220 198 190 237 323 63 62 52 26 5 354 349 348 348 347 347 345 344 345 345 344 342 339 337 337 338 337 339 340 345 356 5 10 11 12 13 15 18 18 19 18 4 358 358 348 339
185 186 189 189 189 192 195 199 201 202 200 196 194 191 189 185 181 179 181 188 191 197 205 202 198 202 209 208 212 219 215 213 212 197 162 149 159 191 217 217 224 225 264 321 28 42 39 16 358 350 344 344 346 346 348 349 353 356 355 353 350 348 348 347 347 350 355 0 9 21 28 32 33 32 33 35 37 39 39 39 33 23 17 10 1
183 186 188 188 188 193 198 203 204 205 203 200 198 196 193 187 184 185 192 205 210 217 214 209 208 211 218 220 225 224 215 213 209 195 172 151 150 178 206 214 230 240 261 310 2 26 23 3 351 344 341 342 345 350 353 356 4 9 8 5 5 8 9 11 20 32 42 48 49 51 50 49 48 46 47 48 49 51 47 44 43 40 37 34 27
181 183 188 186 186 193 200 204 205 206 203 202 202 201 198 193 194 200 211 220 220 218 210 208 211 214 223 230 239 234 219 211 202 197 192 181 166 180 195 203 202 248 273 324 341 350 354 352 350 343 343 349 354 1 2 10 21 22 20 20 26 33 38 49 60 65 67 67 64 61 59 55 54 54 55 55 57 57 52 47 48 49 48 47 43
181 183 186 184 184 191 198 202 205 204 200 201 203 203 202 203 209 216 219 217 212 206 202 205 210 217 228 239 247 238 221 207 197 198 201 200 190 179 180 176 120 319 312 342 344 346 351 351 359 354 352 360 5 7 7 16 26 28 28 35 49 57 63 70 73 72 70 68 64 61 59 57 56 56 58 58 59 59 57 53 51 51 50 50 51
185 184 185 182 183 189 195 199 201 199 197 197 199 201 205 206 209 208 205 201 197 195 197 203 212 222 231 239 237 221 209 203 191 186 185 179 173 166 149 111 11 322 326 350 354 358 1 356 360 355 352 353 352 353 359 8 20 29 37 52 66 71 75 77 74 71 68 63 60 57 55 55 55 56 57 58 57 57 59 59 54 51 51 52 53
188 185 183 183 183 186 192 195 197 196 194 194 195 197 197 194 192 189 190 188 187 190 194 203 212 216 219 221 212 197 187 180 168 160 160 158 150 140 117 86 357 339 350 1 4 8 2 353 356 354 350 348 342 343 350 359 12 26 47 71 79 80 80 78 72 68 64 59 54 52 52 52 54 55 56 57 55 54 55 57 54 50 48 49 51
187 184 183 184 184 184 188 191 195 197 196 193 191 189 186 183 181 180 181 179 179 181 183 192 193 187 191 190 184 176 163 151 142 139 142 145 135 119 103 66 359 347 343 342 343 344 341 341 351 353 347 345 345 346 350 356 7 29 74 90 89 87 82 76 70 65 59 55 52 50 50 50 52 55 56 56 53 51 50 50 48 45 43 40 41
181 181 181 182 182 182 185 189 193 195 194 192 187 183 179 175 172 169 170 169 166 163 162 165 157 157 161 157 153 148 144 140 137 139 140 141 130 110 86 337 325 323 322 319 319 321 334 345 350 352 349 351 354 353 353 358 13 62 100 99 91 86 81 72 65 61 56 54 52 50 49 50 52 54 55 54 52 49 46 44 39 35 34 32 31
176 176 176 178 179 180 183 185 187 190 190 188 183 177 170 165 163 159 157 156 156 153 149 149 144 143 142 138 136 136 143 147 145 149 149 148 144 165 295 310 309 311 312 312 321 332 342 349 351 351 348 350 359 3 1 14 61 96 107 103 92 83 76 68 62 58 55 53 51 49 48 49 51 52 53 52 50 47 43 40 33 27 24 24 24
170 174 174 175 178 180 181 179 181 186 188 184 179 175 172 167 160 156 152 148 152 150 141 141 141 139 138 137 137 139 144 147 146 149 148 151 166 273 293 301 305 311 314 323 339 343 346 348 349 359 6 11 23 22 18 44 89 99 108 107 94 82 72 63 59 57 54 51 49 48 47 47 49 50 51 50 47 44 41 36 30 25 23 22 22
167 173 175 174 177 178 178 178 180 184 185 183 180 180 182 181 172 162 154 147 148 147 141 139 139 138 137 136 135 135 137 137 136 135 126 107 11 321 309 312 317 323 324 332 342 343 350 352 356 42 55 50 48 42 38 53 82 104 113 111 100 90 76 60 54 55 53 49 46 46 46 44 46 47 46 48 46 41 37 34 29 26 26 24 22
170 173 174 173 174 175 177 180 181 182 183 184 185 184 183 183 177 165 157 150 146 146 143 139 139 136 132 129 128 127 127 121 111 89 58 40 16 348 339 333 332 339 333 333 347 356 15 33 54 84 81 70 63 54 50 53 71 111 117 98 97 130 99 51 46 50 47 46 43 42 45 44 43 44 42 45 44 38 34 32 30 27 26 26 24
170 172 172 173 173 175 180 182 181 181 183 184 184 184 178 173 166 158 156 152 147 146 144 138 137 136 131 126 120 113 107 91 73 53 38 34 23 7 4 351 350 3 345 347 18 37 54 65 76 95 95 83 74 62 57 57 63 82 105 124 107 70 118 360 21 42 40 43 41 38 43 43 40 40 39 42 44 37 32 31 31 28 26 26 26
173 175 174 175 174 177 182 184 182 181 184 184 183 182 176 167 157 150 148 145 144 145 144 137 132 133 129 119 109 98 88 72 56 45 38 33 32 31 26 16 19 23 22 46 69 73 77 81 87 98 95 90 85 74 65 61 62 64 72 95 96 62 160 311 344 40 30 35 37 34 39 40 37 39 39 40 44 36 30 31 32 29 26 25 25
179 179 178 178 177 180 184 185 183 183 185 185 184 182 176 170 163 156 151 146 143 145 148 144 137 132 125 116 105 91 75 60 50 45 41 36 36 42 45 51 62 73 84 89 90 86 83 85 89 96 96 94 91 82 73 69 67 66 70 77 75 76 103 306 332 58 11 23 27 27 33 36 31 35 38 38 43 36 27 29 31 27 24 23 23
182 181 180 179 178 181 185 186 183 184 186 185 184 182 177 174 171 166 161 157 151 147 151 150 142 133 124 117 106 90 70 54 52 45 37 31 33 58 74 84 92 97 101 96 91 87 84 87 89 93 97 93 87 84 80 75 71 70 71 76 77 74 70 67 76 62 342 360 13 19 26 33 31 29 33 36 39 32 25 26 29 25 24 23 21
183 182 181 181 180 182 185 185 184 185 187 184 183 184 180 176 173 170 166 164 159 151 149 146 140 137 129 119 107 91 68 52 48 27 15 28 72 98 100 102 106 105 101 93 89 89 89 91 92 91 91 86 82 85 83 78 75 74 74 76 76 71 66 70 76 76 87 300 346 10 13 24 34 29 29 33 37 31 22 23 27 24 22 22 21
183 182 182 181 182 183 184 184 184 186 185 182 181 182 181 178 177 172 165 162 159 152 149 146 143 141 133 123 111 95 69 50 34 3 360 115 116 115 113 110 108 103 98 95 94 95 93 92 91 89 87 84 82 82 80 77 75 74 73 74 74 68 62 60 60 62 66 31 360 346 355 5 23 27 26 30 36 33 22 21 24 23 20 19 17
182 182 182 181 182 183 184 184 186 187 183 181 181 180 181 181 180 177 168 160 156 152 151 148 146 144 136 127 118 104 84 55 30 22 137 137 127 122 117 111 107 104 102 100 99 97 94 91 89 87 85 84 81 79 79 77 76 73 70 69 67 62 56 49 46 48 52 43 21 325 348 351 354 6 12 22 32 33 21 19 21 20 18 16 14
180 181 181 182 184 183 183 182 185 187 183 181 181 181 183 184 184 181 174 167 162 159 156 152 151 151 142 133 127 121 117 115 130 137 143 141 134 126 119 113 110 109 107 103 100 96 94 93 91 88 85 84 83 81 82 80 79 76 71 69 67 65 63 57 50 46 49 45 11 331 349 351 347 355 2 12 23 27 17 14 16 16 13 12 10